GFSFLT2_prec_cthk_141.txt.gz
RH
30 31 33 33 33 38 40 45 47 49 53 55 58 64 58 47 46 43 43 42 36 36 35 33 33 34 36 41 45 45 46 44
20 19 18 18 22 23 28 34 46 50 54 56 58 56 64 64 55 46 41 43 42 38 39 36 34 35 36 40 44 45 45 42
15 15 13 12 12 13 15 16 23 35 47 59 65 63 62 61 66 65 47 43 45 43 44 43 36 35 37 40 45 44 43 42
13 12 11 11 10 10 10 12 14 16 28 36 60 70 75 67 60 66 72 54 48 48 45 47 40 36 36 40 44 45 42 41
12 11 11 10 9 9 9 9 9 9 11 16 30 44 66 78 72 62 65 69 58 52 56 51 41 38 36 38 43 44 42 40
12 12 11 11 11 11 11 12 13 12 11 10 10 17 34 53 70 75 67 63 61 51 47 48 48 39 38 38 43 45 42 41
14 15 15 15 14 14 13 13 13 13 14 14 13 12 11 24 44 64 74 70 65 59 48 47 47 43 39 39 41 44 43 42
16 18 20 20 19 18 17 16 15 14 14 15 14 14 14 12 14 38 58 71 72 68 59 46 44 46 41 41 42 44 45 42
18 19 21 20 20 19 19 19 17 16 14 14 14 14 13 13 13 13 26 51 67 75 73 57 47 46 46 43 44 45 47 45
20 23 23 20 19 18 18 18 18 17 15 14 13 14 13 13 12 12 12 32 54 68 77 80 55 47 50 45 44 45 47 46
24 27 26 23 23 22 21 20 19 18 17 16 14 14 14 13 11 11 12 13 32 59 72 86 83 51 49 50 46 45 48 47
31 30 29 27 25 24 23 22 22 20 19 19 20 17 17 16 13 11 11 13 18 40 69 78 91 71 51 52 54 48 51 47
34 32 30 28 26 26 24 24 24 23 23 23 24 25 23 21 19 15 12 15 20 25 49 64 95 89 62 60 61 56 55 49
36 32 30 30 30 29 30 30 29 29 29 31 29 29 29 26 24 21 18 19 19 28 30 55 75 85 87 66 67 64 59 54
34 33 32 32 33 34 34 35 36 37 37 35 37 37 36 34 29 26 24 28 23 27 31 37 64 95 96 79 65 65 58 62
37 35 34 36 38 40 41 41 40 41 38 38 39 41 40 42 39 31 27 31 28 31 32 27 29 40 87 96 66 64 67 65
37 35 37 41 44 45 45 45 44 42 43 44 44 43 46 46 46 42 35 32 29 33 39 31 38 33 52 98 90 70 70 70
35 34 41 46 48 50 49 48 47 45 46 48 46 46 47 52 51 48 42 36 31 35 38 36 32 42 42 63 93 82 70 74
35 35 41 46 52 52 53 51 51 52 54 54 53 49 46 48 55 53 47 43 35 39 39 40 30 31 56 72 94 90 77 77
36 35 41 43 51 56 57 56 58 59 60 61 60 58 56 57 55 58 55 50 45 45 41 35 31 27 31 49 58 87 80 83

GFSFLT2_prec_cthk_144.txt.gz
RH
28 27 26 27 28 27 28 31 35 41 47 50 51 55 57 56 62 67 51 49 48 46 40 36 35 37 38 40 42 46 50 54
18 16 14 13 13 14 15 18 23 28 35 45 53 54 58 58 56 56 71 59 50 45 44 41 40 37 38 40 41 46 48 54
14 13 12 11 10 10 10 10 11 13 17 27 36 48 58 68 65 61 58 65 68 50 44 46 44 43 39 39 42 46 51 53
13 13 12 12 11 11 9 8 8 8 8 10 18 26 40 52 64 66 64 61 62 71 59 49 52 49 43 39 40 48 54 54
13 13 13 12 12 11 11 11 12 12 11 10 9 9 15 26 47 61 71 66 63 64 72 68 58 59 56 47 43 48 54 53
15 14 14 14 14 13 13 13 13 13 12 13 12 12 11 10 18 31 52 69 74 66 64 66 70 57 57 51 45 47 54 54
17 17 17 15 16 17 16 16 15 15 14 14 14 14 13 13 11 13 22 38 62 76 66 64 69 70 56 55 47 46 49 53
19 19 19 17 17 19 18 17 16 16 15 15 15 15 15 14 14 12 11 19 32 52 71 67 67 71 65 52 51 47 47 52
22 21 20 19 19 20 19 18 17 17 16 16 15 15 14 13 13 14 13 12 22 35 45 68 70 72 71 59 55 51 47 51
24 23 23 23 23 22 22 21 20 20 19 18 17 16 16 15 14 13 14 13 13 20 34 48 65 73 69 67 56 57 51 52
27 28 27 27 26 27 27 26 25 25 23 23 22 20 18 17 17 17 15 14 15 16 17 30 47 68 71 67 68 62 60 55
32 32 32 31 31 30 29 29 29 28 28 27 26 25 24 23 22 21 20 17 16 17 17 20 32 60 71 72 59 63 63 59
39 39 36 32 31 30 30 30 30 31 31 31 29 29 27 26 25 22 22 25 23 19 19 21 26 35 65 69 75 69 60 61
40 37 36 33 32 33 34 35 34 33 33 33 32 30 31 31 30 29 29 29 27 25 23 23 25 31 36 70 92 92 82 63
40 38 35 35 36 36 35 36 37 36 37 37 38 39 40 39 38 35 35 33 31 29 28 27 31 32 37 52 85 95 87 68
40 39 38 38 36 37 38 39 40 41 40 42 43 44 43 42 42 39 38 37 35 33 31 35 36 37 43 45 56 64 89 85
42 37 35 36 36 38 41 44 46 46 46 48 48 49 48 46 46 45 44 42 39 40 37 38 38 41 45 46 44 62 71 95
40 37 36 36 36 38 44 48 51 51 52 53 54 54 53 52 49 47 45 46 45 44 43 39 36 39 50 48 35 38 50 78
38 38 38 34 35 40 45 50 53 56 56 56 55 57 57 57 53 52 52 49 47 48 46 44 43 40 41 45 36 25 27 37
37 34 32 32 34 39 47 52 58 58 60 59 60 60 60 59 56 53 54 55 51 51 53 49 51 52 58 53 50 44 36 43

GFSFLT2_prec_cthk_150.txt.gz
RH
27 26 26 25 23 20 16 13 12 11 10 11 13 21 30 40 45 51 58 60 59 57 56 55 55 49 42 38 36 35 35 36
24 22 19 16 13 12 11 10 10 9 8 8 8 8 14 24 36 44 57 59 63 68 62 57 54 56 53 46 42 37 35 34
15 14 13 13 12 11 11 11 10 10 10 9 8 7 6 7 13 24 43 52 58 65 63 63 60 57 56 55 52 44 37 35
14 14 13 13 13 12 12 12 12 12 11 10 10 9 9 8 8 8 11 20 42 57 62 63 61 59 58 60 59 56 46 40
15 14 14 14 13 12 12 13 13 13 14 14 13 12 11 10 10 10 10 9 12 26 49 63 58 60 61 66 62 66 62 51
15 14 13 13 14 14 15 15 14 14 14 15 15 15 15 15 14 13 12 12 11 14 22 38 60 63 69 69 69 69 74 73
14 14 15 15 16 18 19 18 17 17 16 16 16 16 15 14 14 14 15 15 14 16 18 19 31 51 64 71 73 74 72 76
17 18 19 21 22 22 23 22 21 21 21 21 22 20 18 17 17 16 16 16 16 18 17 17 18 28 42 60 68 73 76 69
22 24 25 25 25 25 23 22 22 22 23 23 23 23 23 23 21 20 20 19 18 17 17 18 21 22 19 34 55 65 70 74
30 29 27 25 25 24 24 25 24 25 24 23 24 24 24 24 24 23 24 23 22 21 20 19 19 25 28 19 22 47 66 64
32 31 29 28 28 27 27 26 25 24 24 24 24 25 25 26 27 27 27 27 26 25 24 24 23 22 32 32 25 18 40 63
33 35 33 30 29 25 25 24 24 25 25 26 26 27 28 29 29 29 30 29 29 28 28 26 26 26 26 35 34 32 23 36
36 33 31 30 28 26 25 24 26 27 28 29 31 34 34 34 35 34 33 33 33 33 32 31 28 30 31 26 31 33 31 22
35 35 35 34 30 31 30 28 30 31 32 33 35 36 34 33 34 36 38 38 37 37 37 34 33 35 38 36 28 32 28 27
40 38 37 37 36 32 28 29 29 30 31 33 36 38 39 41 41 43 44 43 42 42 41 40 36 35 39 42 40 32 33 28
43 41 40 40 38 33 30 29 31 30 32 35 39 42 43 47 48 48 49 48 47 47 46 45 44 41 40 42 42 44 51 46
47 46 44 43 40 34 28 29 28 29 31 35 40 45 48 49 51 52 52 50 49 50 49 49 47 46 46 43 42 44 43 51
50 50 47 45 39 32 27 25 26 23 30 34 37 46 51 52 54 54 54 54 53 52 54 54 51 47 46 46 42 46 47 52
51 53 49 43 33 29 26 24 22 25 28 30 34 45 51 56 58 58 59 59 59 55 54 55 58 57 53 48 46 42 51 55
48 48 44 37 27 29 26 19 22 28 28 27 34 46 52 56 59 59 59 59 59 57 58 59 58 54 54 53 49 48 50 55

GFSFLT2_prec_cthk_156.txt.gz
RH
27 27 27 27 27 24 21 19 16 13 12 11 10 9 8 8 8 12 18 26 31 35 40 49 55 54 55 56 53 51 49 47
27 26 25 22 20 18 16 15 15 14 13 12 11 10 10 9 8 8 8 11 17 25 31 39 50 52 55 56 57 58 53 50
25 22 19 18 16 15 15 15 14 14 13 13 12 11 10 10 10 9 9 8 7 8 12 25 38 46 52 57 57 57 58 56
18 16 15 15 15 15 14 14 14 13 13 12 12 12 11 11 12 13 12 10 9 9 8 9 13 25 42 50 56 56 59 58
17 16 15 14 13 13 13 13 13 13 13 14 14 14 13 14 15 16 16 15 13 11 10 9 10 11 14 31 50 54 55 57
14 14 13 13 13 13 14 14 15 15 15 15 15 16 17 18 17 18 18 16 14 13 12 11 11 12 12 14 21 42 54 57
15 16 17 18 19 19 20 20 21 21 21 21 21 20 18 17 17 16 16 16 16 15 14 13 13 12 12 14 16 18 36 56
21 23 24 25 25 26 26 25 23 22 20 19 18 18 17 17 16 16 16 16 15 15 15 15 14 14 13 13 14 16 17 29
27 29 29 29 28 26 24 22 20 20 20 20 19 18 18 17 17 17 17 16 16 15 15 15 15 15 14 14 14 14 17 19
27 27 27 27 25 24 23 23 23 22 21 20 20 19 19 18 18 18 19 18 18 17 16 16 16 16 15 14 15 15 16 18
27 28 28 27 27 26 24 24 23 22 22 20 19 18 17 17 18 19 20 21 23 23 24 23 21 18 16 15 15 15 15 17
29 28 26 28 28 27 25 24 23 23 21 20 19 18 18 19 20 22 23 25 26 27 27 27 26 25 23 17 15 14 16 16
27 27 28 30 31 29 27 25 24 23 21 20 20 20 20 21 23 25 26 29 31 32 32 32 31 30 27 25 19 16 15 16
30 28 31 32 32 29 28 27 25 24 21 20 21 21 22 24 26 27 29 30 33 33 35 36 35 35 35 34 27 22 21 22
33 32 33 33 33 29 27 26 25 22 20 18 21 22 23 24 26 25 28 33 38 40 41 43 41 40 42 40 37 36 32 29
36 34 34 34 33 31 28 26 25 24 23 22 22 21 22 25 26 26 31 36 42 45 46 46 47 47 46 47 44 41 40 35
36 32 31 30 28 26 27 27 26 27 25 24 20 19 20 26 25 29 32 39 44 48 53 54 54 51 50 49 48 47 45 43
36 32 30 26 24 22 23 30 30 30 29 25 18 19 22 20 27 31 35 40 48 53 53 55 56 56 55 55 54 52 52 49
35 29 27 22 19 20 22 24 32 34 32 26 17 19 18 15 26 33 35 39 47 56 59 60 60 60 57 56 56 55 55 56
34 31 26 24 22 21 21 23 27 31 34 28 17 16 13 14 22 33 37 39 44 51 58 63 62 62 61 61 60 59 57 55

GFSFLT2_prec_cthk_162.txt.gz
RH
33 31 30 28 27 27 26 24 22 20 19 17 15 14 14 14 13 12 11 11 9 8 11 19 28 35 41 45 45 45 48 50
33 31 28 28 28 26 24 20 18 17 16 15 15 14 14 14 14 13 13 11 11 10 9 8 10 16 28 37 43 46 46 48
28 26 24 23 21 19 17 17 16 15 14 13 12 12 12 12 12 12 12 12 12 12 12 12 11 10 11 16 28 37 44 46
21 19 19 19 18 16 15 13 13 12 13 13 14 15 15 15 14 14 13 13 13 13 14 14 14 14 13 12 12 16 28 39
18 17 16 14 13 14 14 15 15 16 18 20 22 22 22 22 21 20 19 18 17 16 16 16 16 16 17 17 14 13 12 16
17 17 16 16 17 18 19 20 21 22 22 22 22 21 21 20 19 18 17 16 15 15 15 16 16 16 16 17 17 16 15 13
20 19 19 20 22 23 23 23 23 23 23 22 21 20 19 18 18 17 16 16 15 15 15 15 15 15 15 14 15 15 15 15
25 25 26 27 27 26 25 24 23 23 22 22 21 20 18 17 16 16 15 14 14 13 13 13 14 14 14 15 15 14 14 15
30 29 29 28 26 24 23 24 24 23 22 21 20 19 18 17 17 16 15 15 15 14 14 14 14 14 14 14 14 14 14 14
32 31 32 32 32 30 29 27 26 24 23 22 21 20 19 18 17 17 17 17 16 15 15 15 15 15 15 16 15 15 14 14
34 35 37 36 37 36 33 30 28 25 23 21 20 19 18 18 18 17 17 16 16 17 17 19 18 18 18 19 17 17 16 17
40 42 41 42 41 40 36 32 29 25 22 20 19 18 17 17 18 18 17 17 18 19 20 22 24 23 23 21 20 20 22 22
44 45 47 46 45 42 36 32 28 22 19 17 16 17 16 17 18 19 19 20 20 21 23 24 26 27 26 25 25 25 29 29
49 50 49 48 49 47 41 35 29 21 17 15 14 16 17 18 20 21 22 23 23 23 25 27 30 35 36 34 32 31 33 31
54 52 56 56 54 48 43 36 26 21 18 16 15 15 15 16 19 22 24 25 24 26 28 29 34 40 44 44 42 42 39 35
61 62 62 59 56 50 42 32 26 22 19 17 16 14 13 14 15 19 24 26 26 27 30 34 39 46 49 53 52 51 49 44
71 66 63 61 56 47 37 30 26 23 20 17 14 13 13 14 15 18 23 28 29 29 32 38 43 46 51 55 57 55 53 52
68 68 64 58 49 40 35 32 27 24 23 22 19 18 17 17 18 18 20 28 29 30 35 40 43 48 52 55 57 56 57 55
72 61 54 48 43 39 35 32 32 29 26 26 27 26 24 22 19 16 18 25 26 28 33 41 45 48 51 53 54 55 55 55
57 50 49 47 43 38 36 34 31 31 30 31 31 32 35 31 24 18 17 20 17 22 27 35 44 50 51 50 51 52 53 55

GFSFLT2_prec_cthk_165.txt.gz
RH
44 38 34 33 31 30 28 28 27 24 21 19 17 16 15 14 13 13 13 12 12 12 11 10 9 10 15 24 32 38 40 42
39 35 32 30 28 27 27 25 21 19 18 16 15 14 14 13 12 11 11 11 11 11 11 11 10 9 9 9 13 26 34 39
32 31 29 28 25 23 21 21 20 17 16 15 13 12 12 12 12 12 12 13 13 13 13 12 11 11 11 10 10 10 14 27
24 23 22 21 20 19 18 16 14 13 13 13 14 14 15 16 17 18 18 18 18 17 16 16 15 14 13 13 13 12 12 11
19 17 16 15 15 14 14 15 15 16 17 17 17 17 17 18 19 19 18 18 18 17 16 16 16 16 16 16 17 18 16 15
22 21 20 19 18 18 18 19 20 20 20 20 21 20 19 18 17 16 16 15 15 14 14 14 14 14 14 15 14 14 16 17
25 23 22 21 22 22 22 22 22 22 21 20 19 18 18 17 17 16 16 15 14 14 13 13 13 12 13 13 13 14 14 14
28 28 28 28 27 26 26 25 24 23 23 23 22 21 20 19 18 17 17 16 15 15 14 13 13 13 13 12 12 13 13 13
32 31 30 29 29 29 30 31 31 28 27 25 24 22 20 19 18 17 16 15 15 14 14 14 14 14 14 14 13 13 13 13
35 34 33 32 32 33 34 34 32 32 30 26 24 22 19 18 17 17 16 16 16 16 15 14 14 15 15 16 15 15 14 14
38 37 37 35 36 37 37 36 34 33 30 27 24 21 17 16 16 16 17 17 17 17 18 18 18 18 19 19 18 17 17 18
40 41 40 41 43 43 43 42 40 38 35 30 25 20 17 16 15 17 18 19 19 20 20 21 22 22 22 20 20 21 22 24
44 45 45 45 44 45 46 43 41 39 36 30 25 22 18 15 15 16 17 20 22 23 23 23 24 24 25 23 27 28 27 27
50 49 47 47 47 49 50 49 47 42 35 28 24 21 17 15 14 14 16 19 22 23 25 26 26 30 30 31 31 32 34 33
51 50 50 51 56 58 57 53 46 36 30 27 25 20 16 15 14 14 16 20 23 25 27 30 31 34 38 37 39 42 41 40
51 53 58 65 64 62 55 46 38 33 30 27 23 20 19 18 17 16 17 21 25 26 30 34 34 36 40 43 49 50 50 46
63 68 70 72 65 53 47 43 37 34 32 26 22 21 21 19 20 20 20 21 25 27 27 36 37 38 39 43 49 51 54 53
75 79 78 62 54 50 47 44 40 36 30 28 26 24 24 24 24 24 23 22 20 21 27 34 35 38 41 43 45 48 51 50
80 75 65 56 53 52 49 47 40 35 33 31 29 25 28 29 32 30 28 25 22 19 19 28 27 30 35 42 47 49 50 50
69 64 56 52 51 50 49 45 41 35 34 31 29 31 36 39 39 37 35 30 25 20 18 19 19 24 28 33 43 48 48 49

GFSFLT2_prec_cthk_168.txt.gz
RH
51 45 41 41 39 35 31 29 28 28 26 23 21 19 18 17 15 13 13 12 11 11 11 11 12 11 11 10 11 15 23 33
37 37 39 35 31 29 28 27 25 22 21 22 21 19 16 14 12 11 11 11 11 11 10 10 11 11 12 11 10 10 11 18
33 34 33 31 31 28 24 23 22 22 22 19 16 13 13 12 12 12 12 11 11 12 14 14 14 14 14 13 13 13 13 12
30 28 25 22 21 20 19 18 17 15 14 13 14 14 14 14 14 14 14 15 15 16 17 17 17 17 16 15 15 14 14 13
25 23 22 21 20 18 17 17 16 17 17 17 16 16 15 16 17 17 17 16 15 15 15 14 14 14 15 15 15 15 16 17
21 20 21 21 21 21 20 20 20 20 19 19 19 19 18 17 16 15 15 14 14 14 14 13 13 13 13 13 13 14 15 15
24 25 25 25 25 25 25 24 23 23 23 23 21 21 20 20 19 18 17 16 15 15 14 14 13 13 13 12 12 12 12 13
29 28 28 29 29 28 26 27 28 28 28 27 26 24 22 21 20 18 17 16 16 15 14 14 13 13 13 14 13 14 14 13
31 31 32 32 31 30 30 31 31 31 31 29 27 26 24 22 20 19 17 16 17 17 16 16 16 16 17 16 15 18 18 19
34 35 35 35 35 34 34 34 34 35 34 32 31 29 27 24 22 20 19 18 17 17 17 17 19 20 19 18 19 19 19 20
37 38 38 37 36 37 36 36 36 36 36 37 36 33 30 27 24 22 20 19 18 18 17 18 21 23 21 19 20 20 20 22
40 40 39 38 38 39 40 40 39 40 41 41 37 31 27 25 24 22 19 18 18 18 18 20 24 24 22 22 22 23 29 32
41 43 42 42 42 43 43 43 43 44 44 39 32 28 26 25 23 20 19 19 18 20 20 22 27 26 26 24 25 31 34 31
44 45 46 45 45 44 46 49 50 49 42 34 31 29 27 25 22 19 18 18 19 22 22 24 28 30 30 31 31 33 40 36
48 49 49 48 46 50 57 57 53 44 37 34 32 30 28 23 21 19 18 18 22 24 23 24 27 32 35 39 41 40 39 44
51 50 50 51 56 64 64 57 48 42 40 35 33 29 27 25 21 19 19 20 22 25 26 25 28 32 36 42 44 45 43 46
54 52 55 63 68 66 59 52 50 44 41 36 32 28 26 23 22 22 23 24 24 23 24 24 27 29 33 38 45 46 48 48
57 61 68 70 71 61 57 53 50 47 43 38 30 27 27 26 26 25 24 24 24 26 28 28 28 28 28 33 39 42 44 45
66 70 74 70 57 52 53 50 51 45 37 33 31 31 29 27 26 24 24 26 27 26 30 33 28 26 26 24 29 34 41 47
69 70 66 56 50 52 54 53 51 43 37 34 33 28 26 26 24 24 26 29 28 28 30 30 33 31 27 23 25 27 31 39